星链-32139 (STARLINK-32139)

导读

STARLINK-32139是美国SpaceX公司星链星座的成员卫星,于2024年10月15日发射入轨,部署于近地轨道,是星链全球卫星互联网组网的组成部分。 该卫星依托星链星座规划,可为全球网络覆盖薄弱地区提供高速宽带接入服务,同时兼具潜在军事应用价值,助力星链实现全球覆盖、低时延通信的建设目标,推动太空互联网基础设施建设。

Basic Information
目录编号:
61510
目录名称:
STARLINK-32139
国际标识:
2024-183B
轨道中心:
EARTH
卫星名称:
星链-32139
卫星全名:
星链-32139 (STARLINK-32139)
卫星状态:
在轨 (已飞行608 天)
发射日期:
2024-10-15 UTC
国别 :
美国 (US)
星等 :
--
Orbit Information
数据来源 国际轨道数据 AOE轨道数据
星历时间 2026-06-15T07:24:29+0800
7小时前
查看轨道信息
2026-06-13T06:00:00+0800
2天前
查看轨道信息
半长轴 6848.86km 6848.862km
偏心率 0.0001078 0.0002183
轨道倾角 53.161° 53.158°
近地点辐角 97.455° 54.126°
升交点赤经 50.128° 59.708°
平近点角 262.657° 107.937°
近地点 469.984km 469.229km
远地点 471.462km 472.221km
周期 94.013分钟 94.013分钟
每日圈数 15.317058 15.317051
Detailed Information
固有亮度:
5
最大亮度:
2.5
卫星平台:
Starlink V1.0
覆盖范围:
全球
运营商:
太空探索技术公司
运营商所在国:
美国
制造商(研发单位):
太空探索技术公司
制造商所在国:
美国
使用方式:
暂无
Satellite Introduction
Starlink 计划是 SpaceX 推出的全球卫星互联网项目,通过发射低轨道卫星,为全球尤其是偏远地区提供高速、低延迟的互联网服务。自 2019 年起,Starlink 已部署数千颗卫星,旨在缩小全球数字鸿沟,推动互联网普及。该项目还为军事、航空等行业提供通信支持,带来广泛经济效益。
2D Orbit Map
3D Orbit Map
Orbit Altitude Analysis Chart
Orbit Inclination Analysis Chart
Orbit Comprehensive Analysis Chart
View Comprehensive Chart